This is the latest recevied weather packets stored in our database for station/object KE5VT. If no packets are shown the sender has not sent any weather packets the latest 10 day(s).
| Time | Temp. | Humidity | Pressure | Rain* | Wind** | Luminosity | Snow |
|---|---|---|---|---|---|---|---|
| 1777472612 | 17.22° C | 94% | 1009.7 hPa | 0 mm | - | 54 W/m² | - |
| 1777472309 | 17.78° C | 94% | 1009.8 hPa | 0 mm | - | 39 W/m² | - |
| 1777472006 | 17.78° C | 94% | 1009.9 hPa | 0 mm | - | 36 W/m² | - |
| 1777471702 | 17.78° C | 94% | 1010 hPa | 0 mm | - | 36 W/m² | - |
| 1777471398 | 17.78° C | 94% | 1009.6 hPa | 0 mm | - | 63 W/m² | - |
| 1777471095 | 17.22° C | 94% | 1009.7 hPa | 0 mm | - | 64 W/m² | - |
| 1777470792 | 17.78° C | 94% | 1009.7 hPa | 0 mm | - | 78 W/m² | - |
| 1777470489 | 17.22° C | 95% | 1009.7 hPa | 0 mm | - | 59 W/m² | - |
| 1777470184 | 17.22° C | 95% | 1010 hPa | 0 mm | - | 68 W/m² | - |
| 1777469881 | 17.22° C | 95% | 1009.7 hPa | 0 mm | - | 87 W/m² | - |
| 1777469577 | 17.22° C | 95% | 1009.6 hPa | 0 mm | - | 55 W/m² | - |
| 1777469271 | 16.67° C | 96% | 1009.8 hPa | 0 mm | - | 51 W/m² | - |
| 1777468967 | 17.22° C | 96% | 1009.4 hPa | 0 mm | - | 54 W/m² | - |
| 1777468663 | 16.67° C | 96% | 1009.8 hPa | 0 mm | - | 69 W/m² | - |
| 1777468360 | 16.67° C | 97% | 1009.9 hPa | 0 mm | - | 60 W/m² | - |
| 1777468056 | 16.67° C | 97% | 1010.1 hPa | 0 mm | - | 91 W/m² | - |
| 1777467752 | 16.67° C | 97% | 1010 hPa | 0 mm | - | 58 W/m² | - |
| 1777467447 | 16.67° C | 97% | 1010.4 hPa | 0 mm | - | 30 W/m² | - |
| 1777467143 | 16.67° C | 97% | 1010 hPa | 0 mm | - | 22 W/m² | - |
| 1777466841 | 16.67° C | 97% | 1009.8 hPa | 0 mm | - | 34 W/m² | - |
| 1777466538 | 16.67° C | 97% | 1009.7 hPa | 0 mm | - | 51 W/m² | - |
| 1777466235 | 16.67° C | 98% | 1009.7 hPa | 0 mm | - | 39 W/m² | - |
| 1777465930 | 16.67° C | 98% | 1009.7 hPa | 0 mm | - | 38 W/m² | - |
| 1777465627 | 16.11° C | 98% | 1010.2 hPa | 0 mm | - | 25 W/m² | - |
| 1777465322 | 16.11° C | 98% | 1010.8 hPa | 0 mm | - | 15 W/m² | - |
* Rain latest hour (hover to see other rain measurements)
** Current wind speed in m/s (hover to see current wind gust speed)